DELTA 1 DEB

Satellite information

Favourite Embed

Satellite Type and Status

DEBRISIN ORBIT

Key statistics

Satellite DELTA 1 DEB at a glance.

Uptime

18455

Days in orbit

Revolutions

≈ 14.3

Per day

Orbit

SSO

Sun Synchronous Orbit

Inclination

115.2

Latest

Satellite identification and parameters

Extended collection of information and parameters for DELTA 1 DEB.

Object identification

Identified? True

Debris? True

Object name: DELTA 1 DEB

International designator: 1975-027C

Object number (NORAD): 10728

Object ID (CCSDS): 10728

Country: UNITED STATES OF AMERICA (US)

Current information (Y/N): Y

RCS size: SMALL

Orbital parameters

Period: 101.043 minutes

Inclination: 115.2069 deg

SMA: 7186.17 km

Apoapsis: 851.147 km

Periapsis: 764.924 km

RAAN: 246.2501 deg

Eccentricy: 0.00599925

Argument of periapsis: 219.0729 deg

Mean anomaly: 140.6008 deg

Mean motion: 14.25136624 rev/day

Mean motion (dot): 0.00000298 rev/day2

B* drag term: 0.00019891818 1/REarth

Two-line elements (TLE)

Creation date: Oct. 18, 2025, 2:17 a.m.

Reference frame: TEME

Reference center: EARTH

Epoch: Oct. 17, 2025, 8:34 p.m. UTC

TLE line 0: 0 DELTA 1 DEB

TLE line 1: 1 10728U 75027C 25290.85740728 .00000298 00000-0 19892-3 0 9999

TLE line 2: 2 10728 115.2069 246.2501 0059993 219.0729 140.6008 14.25136624620493

Live tracking on map

Real-time ground track for satellite DELTA 1 DEB.

In-orbit conjunctions

A list of the most updated potential collisions computed for object DELTA 1 DEB.

Target Orbit TCA Probability of collision Miss distance Type
FENGYUN 1C DEB SSO 2024-12-16 11:45:38 0.0001801446 84.0 (m) DEBRIS
FENGYUN 1C DEB SSO 2024-08-14 04:45:22 0.0004638849 95.0 (m) DEBRIS

Associated space launch

Geodetic research satellite

DELTA 1 DEB was lifted into orbit during the mission ‘Delta 1410 | Geos 3’, on board a Delta 1410 space rocket.

The launch took place on April 9, 1975, 11:58 p.m. from Space Launch Complex 2W.

For more information about the launch, click the button.

Launch to space Delta 1410 | Geos 3
Delta 1410 | Geos 3

Agency: N/A

Status: Launch Successful

Launch date: April 9, 1975, 11:58 p.m. UTC

Rocket: Delta 1410

Launch pad: Space Launch Complex 2W

Location: Vandenberg SFB, CA, USA

...

Latest news about this satellite

There are no fresh news available about this satellite. Check back as we update our databases every day.


Newsletter sign-up

Weekly statistics, charts and insights to help you stay on top of the space industry.